Погода в Терновке

Украина / Запорожская область     48˚07′18″N   35˚19′59″E
темп.,
°C
ветер,
м/с
пор.,
м/с
влажн.,
%
обл.,
%
осадки,
мм/ч
давл.,
гПа
погр.,
м
16 января, сб
сб1623:00−8˚сз4893100 0.1 1012315
02:00−11˚зсз498889 0.1 1014291
05:00−12˚з49910 0.0 1014248
08:00−12˚зюз49930 0.0 1015256
11:00−8˚зюз47821 0.0 1016649
14:00−6˚зюз577845 0.0 1015922
17:00−9˚зюз228664 0.0 101621
20:00−10˚зюз118759 0.0 101621
17 января, вс
вс1723:00−11˚ссз129182 0.0 101622
02:00−11˚ссв359691 0.1 1015119
05:00−13˚ссв4794100 0.0 1015206
08:00−14˚ссв4791100 0.0 1015240
11:00−12˚ссв4587100 0.0 1016257
14:00−11˚с5687100 0.0 1015348
17:00−13˚ссв4791100 0.0 1015304
20:00−13˚с4790100 0.0 1016269
18 января, пн
пн1823:00−15˚с359398 0.0 1016145
02:00−16˚с359473 0.0 1016115
05:00−16˚с33950 0.0 101761
08:00−16˚с23953 0.0 101875
11:00−13˚ссз238532 0.0 1018309
14:00−12˚ссз127963 0.0 1017483
17:00−14˚сз2289100 0.0 101824
20:00−14˚сз2394100 0.0 101955
19 января, вт
вт1923:00−16˚сз229599 0.0 101924
02:00−15˚сз239696 0.0 101988
05:00−16˚сз229549 0.0 102020
08:00−15˚зсз129550 0.0 102121
11:00−12˚зсз238347 0.0 1021467
14:00−11˚зсз458174 0.1 1021751
17:00−14˚зсз3591100 0.0 102289
20:00−14˚зсз339461 0.0 102358
20 января, ср
ср2023:00−15˚зсз229425 0.0 102422
02:00−15˚з229426 0.0 102522
05:00−15˚з12940 0.0 102620
08:00−14˚зюз12930 0.0 102721
11:00−9˚юз238515 0.0 1028324
14:00−7˚ююз248341 0.0 1027388
17:00−10˚ю349227 0.0 102737
20:00−10˚ююв449113 0.0 102872